Regional Weather Roundup
Issued by NWS

Home | Current Version | Previous Version | Text Only | Print | Product List | Glossary Off
Versions: 1 2 3 4 5 6 7 8 9 10 11 12 13 14 15 16 17 18 19 20 21 22 23 24 25 26 27 28 29 30 31 32 33 34 35 36 37 38 39 40 41 42 43 44 45 46 47 48 49 50

000
ASUS43 KMPX 211101
RWRMN
WEATHER ROUNDUP FOR MINNESOTA
NATIONAL WEATHER SERVICE TWIN CITIES/CHANHASSEN MN
600 AM CDT THU SEP 21 2017


NOTE: "FAIR" INDICATES FEW OR NO CLOUDS BELOW 12,000 FEET WITH NO
SIGNIFICANT WEATHER AND/OR OBSTRUCTIONS TO VISIBILITY. N/A MEANS
CURRENT SKY AND/OR WEATHER CONDITIONS ARE NOT AVAILABLE.

MNZ060>063-068>070-211200-
   Twin Cities Metro

CITY           SKY/WX    TMP DP  RH WIND       PRES   REMARKS
TWIN CITIES    CLEAR     56  51  84 CALM      29.99S
ST PAUL        CLEAR     52  49  89 CALM      30.00S
CRYSTAL        CLEAR     47  43  86 CALM      29.98S
BLAINE         CLEAR     48  48 100 CALM      29.99S
LAKEVILLE      CLEAR     45  45 100 CALM      29.99F
EDEN PRAIRIE   CLEAR     51  49  92 CALM      29.98S
SOUTH ST PAUL  CLEAR     51  51  98 CALM      29.99S
LAKE ELMO      FAIR      46  46 100 CALM      30.01S FOG
$$
MNZ001>005-007-008-013>017-022>024-027-028-211200-
   Northwest Minnesota

CITY           SKY/WX    TMP DP  RH WIND       PRES   REMARKS
BEMIDJI        CLOUDY    46  43  89 S6        29.93S
HALLOCK        CLOUDY    52  45  76 S13       29.81R
ROSEAU         CLEAR     54  45  71 S14       29.86R
WARROAD        CLEAR     54  46  76 S10G16    29.87S
CROOKSTON      PTCLDY    57  46  67 S15       29.84S
FOSSTON        PTCLDY    54  45  71 SE7       29.90S
DETROIT LAKES  CLEAR     54  46  76 SE13      29.90F
MOORHEAD       MOCLDY    55  46  71 S8        29.87R
PARK RAPIDS    CLEAR     50  44  80 SE9       29.94F
MAHNOMEN       FAIR      55  46  69 SE12G18   29.88F
$$
MNZ006-009>011-018-025>026-211200-
   North Central Minnesota

CITY           SKY/WX    TMP DP  RH WIND       PRES   REMARKS
BAUDETTE       PTCLDY    47  43  86 S8        29.90F
FLAG ISLAND    CLEAR     59  52  77 S17       29.85F
INTL FALLS     CLOUDY    43  40  89 CALM      29.95S
WASKISH        PTCLDY    52  46  82 S3        29.92F
BIG FORK       CLOUDY    45  45 100 S6        29.98R
LONGVILLE      CLEAR     39  39 100 CALM      29.97S
GRAND RAPIDS   CLEAR     44  42  93 SE3       30.01S
CRANE LAKE     CLOUDY    37  37 100 CALM      30.00F
ORR            CLEAR     45  41  87 SE5       29.97R
COOK           CLEAR     39  39 100 CALM      30.00S
WALKER         FAIR      53  46  77 S7        29.95S
$$
MNZ012-019>021-037-211200-
   Northeast Minnesota

CITY           SKY/WX    TMP DP  RH WIND       PRES   REMARKS
DULUTH         CLEAR     44  42  93 CALM      30.01R
ELY            CLEAR     36  36 100 CALM      30.02S
HIBBING        CLEAR     34  34 100 NW5       30.01S FOG     WCI  30
EVELETH        CLEAR     37  35  90 CALM      30.03R
DULUTH HARBOR  CLEAR     48  46  93 SW3       30.02S
TWO HARBORS    CLEAR     43  37  81 CALM      30.01R
SILVER BAY     CLEAR     39  39 100 CALM      30.01S
GRAND MARAIS     N/A     47  45  93 CALM      30.03R
$$
MNZ029>031-032-039>041-046>048-054>057-064-211200-
   West Central Minnesota

CITY           SKY/WX    TMP DP  RH WIND       PRES   REMARKS
FERGUS FALLS   CLEAR     57  46  67 SE13      29.89F
WHEATON        CLEAR     52  46  82 SE10G16   29.91S
MORRIS         CLEAR     52  48  87 S10       29.91S
ALEXANDRIA     CLEAR     53  46  77 SE12      29.95F
ELBOW LAKE     FAIR      54  47  77 E9        29.90F
WADENA         CLEAR     48  45  87 SE6       29.94F
GLENWOOD       CLEAR     50  46  87 E10       29.94F
APPLETON       CLEAR     50  46  87 CALM      29.93R
BENSON         CLEAR     54  46  76 S9        29.95R
ORTONVILLE     CLEAR     48  46  93 NE7       29.91S
MADISON        CLEAR     52  52 100 SE7       29.92S
WILLMAR        FAIR      54  48  82 E9        29.95S
$$
MNZ033>034-036-042>043-049>051-058-059-211200-
   Central Minnesota

CITY           SKY/WX    TMP DP  RH WIND       PRES   REMARKS
ST CLOUD       CLEAR     43  43 100 E3        29.99S
SAUK CENTRE    FAIR      48  45  90 E5        29.96F
PAYNESVILLE    CLEAR     55  47  74 E9        29.97S
AITKIN         FOG       37  36  93 CALM      29.98S VSB 1/2
PINE RIVER     CLEAR     43  41  93 CALM      30.01S
BRAINERD       CLEAR     48  44  86 SE5       29.99R
LITTLE FALLS   CLEAR     46  39  76 CALM      29.98S
LITCHFIELD     CLEAR     52  50  93 E8        29.97
BUFFALO        CLEAR     45  41  88 CALM      29.99F
MAPLE LAKE     CLEAR     46  46  99 CALM      29.99F
HUTCHINSON     CLEAR     52  48  86 E7        29.98F
$$
MNZ037-044-045-052-053-211200-
   East Central Minnesota

CITY           SKY/WX    TMP DP  RH WIND       PRES   REMARKS
PRINCETON      CLEAR     43  43 100 CALM      30.00S FOG
MORA           CLEAR     39  39 100 CALM      30.02S FOG
RUSH CITY      CLEAR     43  42  97 CALM      30.01S
MOOSE LAKE     FOG       37  37 100 CALM      29.99S VSB 1/4
HINCKLEY       FAIR      39  39 100 CALM      30.00S
CLOQUET        CLEAR     41  37  87 CALM      30.01S
MCGREGOR         N/A     41  37  87 CALM      30.00F VSB 1/4
$$
MNZ071>073-080-081-089-090-097-098-211200-
   Southwest Minnesota

CITY           SKY/WX    TMP DP  RH WIND       PRES   REMARKS
MONTEVIDEO     CLEAR     50  46  87 S5        29.93S
GRANITE FALLS  CLEAR     52  48  86 SE7       29.95S
CANBY          CLEAR     50  48  90 E6        29.93S
MARSHALL       CLEAR     52  47  83 S9        29.93F
REDWOOD FALLS  CLEAR     50  46  86 SE6       29.94F
OLIVIA         CLEAR     54  46  76 SE9       29.94S
PIPESTONE      CLEAR     52  46  82 SE6       29.92F
WINDOM         CLEAR     55  46  71 E9        29.95F
WORTHINGTON    CLEAR     53  48  83 E8        29.95F
JACKSON        CLEAR     50  46  87 CALM      29.96F
TRACY          CLEAR     54  49  83 S8        29.94F
SLAYTON        CLEAR     47  45  91 SE6       29.95S
$$
MNZ065>067-074>077-082>085-091>093-211200-
   South Central Minnesota

CITY           SKY/WX    TMP DP  RH WIND       PRES   REMARKS
MANKATO        CLEAR     54  50  86 E5        29.98S
NEW ULM        CLEAR     54  48  82 E6        29.96S
ST JAMES       CLEAR     52  48  87 E6        29.97S
FAIRMONT       CLEAR     50  46  86 E3        29.96F
GLENCOE        CLEAR     52  50  91 E6        29.97F
FARIBAULT      CLEAR     45  45 100 CALM      29.99S
OWATONNA       CLEAR     50  46  87 E3        29.99S
WASECA         CLEAR     54  50  87 E8        29.99S
ALBERT LEA     CLEAR     59  52  77 E7        29.98S
$$
MNZ078>079-086>088-094>096-211200-
   Southeast Minnesota

CITY           SKY/WX    TMP DP  RH WIND       PRES   REMARKS
ROCHESTER      CLEAR     53  50  89 NE6       30.00S
RED WING       CLEAR     50  48  93 CALM      29.99S
STANTON        CLEAR     47  46  96 CALM      29.99R
DODGE CENTER   CLEAR     50  48  93 E3        29.99S
WINONA         CLOUDY    54  54 100 CALM      30.00R FOG
AUSTIN         CLEAR     54  48  82 CALM      29.98S
PRESTON        CLEAR     56  51  82 NE5       30.01R
$$
ABBREVIATIONS USED IN REMARKS
   TC - TEMPERATURES IN CELSIUS
  WCI - WIND CHILL INDEX
   HX - HEAT INDEX
  VSB - VISIBILITY
$$




USA.gov is the U.S. government's official web portal to all federal, state and local government web resources and services.